Regional Weather Roundup
Issued by NWS

Home | Current Version | Previous Version | Text Only | Print | Product List | Glossary Off
Versions: 1 2 3 4 5 6 7 8 9 10 11 12 13 14 15 16 17 18 19 20 21 22 23 24 25 26 27 28 29 30 31 32 33 34 35 36 37 38 39 40 41 42 43 44 45 46 47 48 49 50

000
ASUS45 KBOU 281607
RWRCO

WEATHER ROUNDUP FOR COLORADO
NATIONAL WEATHER SERVICE DENVER/BOULDER CO
1000 AM MDT THU AUG 28 2014

NOTE: "FAIR" INDICATES FEW OR NO CLOUDS BELOW 12000 FEET WITH NO
SIGNIFICANT WEATHER AND/OR OBSTRUCTIONS TO VISIBILITY.

COZ001>005-013-030-031-281700-
...NORTHWEST COLORADO...

CITY           SKY/WX    TMP DP  RH WIND       PRES   REMARKS
CRAIG          LGT RAIN  54  51  90 SW6       30.30S
HAYDEN         CLOUDY    52  48  87 SW7       30.32S
MEEKER         LGT RAIN  54  49  83 CALM      30.34R
MOUNT WERNER   NOT AVBL
STEAMBOAT SPGS CLOUDY    49  49  97 SW6       30.32S
WALDEN         CLOUDY    46  45  93 NW7       30.35R
$$

COZ006>008-011-281700-
...WEST CENTRAL VALLEYS...

CITY           SKY/WX    TMP DP  RH WIND       PRES   REMARKS
GRAND JUNCTION MOSUNNY   61  53  75 CALM      30.26S
MONTROSE       LGT RAIN  57  52  83 S7        30.33S
EAGLE          CLOUDY    55  48  76 CALM      30.33R
RIFLE          CLOUDY    56  53  90 W7        30.30R
DELTA          RAIN      60  53  76 CALM      30.30R
NUCLA          PTSUNNY   55  50  82 CALM      30.35S
$$

COZ017>023-064>068-281700-
...SOUTHWEST COLORADO...

CITY           SKY/WX    TMP DP  RH WIND       PRES   REMARKS
DURANGO        SUNNY     58  43  57 CALM      30.28F
CORTEZ         SUNNY     63  49  60 NE6       30.29F
PAGOSA SPRINGS SUNNY     58  39  50 SE3       30.33F
TELLURIDE      CLOUDY    48  43  81 W12       30.43S
WOLF CREEK PAS PTSUNNY   39  34  81 NE7       30.52R
$$

COZ009-010-012-014-032>034-037-058>063-281700-
...CENTRAL COLORADO...

CITY           SKY/WX    TMP DP  RH WIND       PRES   REMARKS
ASPEN          CLOUDY    50  46  86 N5        30.37R
BUENA VISTA    CLOUDY    59  38  46 NW7       30.31R
COPPER MTN     LGT RAIN  39  36  87 W15G22    30.51S VSB<1/4
BERTHOUD PASS  FOG       32  32 100 N22G28    30.52S VSB<1/4 WCI  19
COTTONWOOD PAS MOSUNNY   52  36  54 NW7       30.40R
GUNNISON       CLOUDY    54  45  71 SW6       30.36S
KREMMLING      LGT RAIN  54  46  76 CALM      30.33S
LEADVILLE      LGT RAIN  45  39  79 N9        30.41R
MONARCH PASS   FOG       36  34  93 W18G26    30.60S VSB<1/4
SALIDA         MOSUNNY   61  41  47 CALM      30.35S
SUNLIGHT       FOG       43  43 100 CALM      30.52R VSB<1/4
WILKERSON PASS NOT AVBL
$$

COZ069>075-281700-
...SAN LUIS VALLEY/SANGRE DE CRISTO MOUNTAINS...

CITY           SKY/WX    TMP DP  RH WIND       PRES   REMARKS
ALAMOSA        CLOUDY    57  41  55 N6        30.32R
LA VETA PASS   NOT AVBL
SAGUACHE       PTSUNNY   55  41  58 NW9       30.33S
$$

COZ035-036-038>040-281700-
...NORTHERN COLORADO FRONT RANGE...

CITY           SKY/WX    TMP DP  RH WIND       PRES   REMARKS
DENVER INTL AP PTSUNNY   65  49  56 W8        30.15R
DMNS CITY PARK   N/A     66  48  52 S2        30.14F
AURORA         PTSUNNY   64  49  57 W5        30.18R
FRONT RANGE AP PTSUNNY   68  52  56 W8        30.16
ERIE MUNI ARPT CLOUDY    65  52  63 CALM      30.14S
BOULDER MUN AP CLOUDY    64  52  63 N3        30.14S
CENTENNIAL     PTSUNNY   66  42  41 W7        30.17R
BROOMFIELD     PTSUNNY   64  52  63 NE5       30.17R
FORT COLLINS   MOSUNNY   66  52  59 E6        30.15R
LONGMONT       MOSUNNY   70  54  56 E5        30.15S HAZE
$$

COZ041-046-047-076>085-087-088-281700-
...PIKES PEAK/PALMER DIVIDE AND SOUTHERN FOOTHILLS...

CITY           SKY/WX    TMP DP  RH WIND       PRES   REMARKS
COLO. SPRINGS  MOSUNNY   66  43  43 SW5       30.20S
A. F. ACADEMY  MOSUNNY   64  42  45 VRB6      30.21S
ELLICOTT       MOSUNNY   65  44  46 SW3       30.18S
FALCON         MOSUNNY   64  42  44 CALM      30.24R
FORT CARSON    MOSUNNY   67  44  44 S7        30.18S
LIMON          PTSUNNY   64  50  60 NW8       30.15R
MONUMENT HILL  SUNNY     63  41  45 W3        30.23R
TRINIDAD       PTSUNNY   67  46  47 W6        30.18S
$$

COZ042>045-048>051-090-091-281700-
...NORTHEAST COLORADO...

CITY           SKY/WX    TMP DP  RH WIND       PRES   REMARKS
GREELEY ARPT   MOSUNNY   68  50  52 N3        30.13S
AKRON          SUNNY     66  54  65 NW16G26   30.11R
BURLINGTON     SUNNY     71  54  54 N14       30.07R
WRAY             N/A     71  58  63 NW15      30.05R
STERLING       SUNNY     73  59  60 N13G21    30.06F
HOLYOKE        MOSUNNY   73  63  68 NW12      30.04S
FORT MORGAN    SUNNY     69  53  57 W10G17    30.11F
$$

COZ086-089-092>099-281700-
...SOUTHEAST COLORADO...

CITY           SKY/WX    TMP DP  RH WIND       PRES   REMARKS
PUEBLO         PTSUNNY   68  51  54 SW8       30.13R
LA JUNTA       MOSUNNY   72  54  53 W7        30.10R
LAMAR          SUNNY     72  57  59 N6        30.05S
SPRINGFIELD      N/A     72  55  55 NW14      30.07S
$$


USA.gov is the U.S. government's official web portal to all federal, state and local government web resources and services.